This is the latest recevied weather packets stored in our database for station/object DB0MOD. If no packets are shown the sender has not sent any weather packets the latest 10 day(s).
| Time | Temp. | Humidity | Pressure | Rain* | Wind** | Luminosity | Snow |
|---|---|---|---|---|---|---|---|
| 1777809550 | 23.33° C | 37% | 1016.1 hPa | 0 mm | - | - | - |
| 1777809251 | 23.33° C | 37% | 1016.1 hPa | 0 mm | - | - | - |
| 1777808950 | 23.33° C | 37% | 1016.2 hPa | 0 mm | - | - | - |
| 1777808650 | 23.89° C | 37% | 1016.3 hPa | 0 mm | - | - | - |
| 1777808350 | 23.89° C | 37% | 1016.4 hPa | 0 mm | - | - | - |
| 1777808050 | 23.89° C | 37% | 1016.4 hPa | 0 mm | - | - | - |
| 1777807750 | 23.89° C | 37% | 1016.4 hPa | 0 mm | - | - | - |
| 1777807450 | 23.89° C | 37% | 1016.4 hPa | 0 mm | - | - | - |
| 1777807150 | 23.89° C | 38% | 1016.3 hPa | 0 mm | - | - | - |
| 1777806850 | 23.89° C | 37% | 1016.4 hPa | 0 mm | - | - | - |
| 1777806550 | 23.89° C | 37% | 1016.4 hPa | 0 mm | - | - | - |
| 1777806250 | 23.89° C | 37% | 1016.5 hPa | 0 mm | - | - | - |
| 1777805950 | 23.89° C | 36% | 1016.6 hPa | 0 mm | - | - | - |
| 1777805652 | 25° C | 35% | 1016.6 hPa | 0 mm | - | - | - |
| 1777805350 | 25.56° C | 35% | 1016.7 hPa | 0 mm | - | - | - |
| 1777805050 | 25.56° C | 35% | 1016.6 hPa | 0 mm | - | - | - |
| 1777804751 | 25.56° C | 36% | 1016.8 hPa | 0 mm | - | - | - |
| 1777804450 | 24.44° C | 36% | 1016.7 hPa | 0 mm | - | - | - |
| 1777804150 | 24.44° C | 36% | 1016.9 hPa | 0 mm | - | - | - |
| 1777803850 | 24.44° C | 37% | 1016.8 hPa | 0 mm | - | - | - |
| 1777803550 | 24.44° C | 37% | 1016.8 hPa | 0 mm | - | - | - |
| 1777803250 | 25° C | 36% | 1016.9 hPa | 0 mm | - | - | - |
| 1777802950 | 25.56° C | 35% | 1016.9 hPa | 0 mm | - | - | - |
| 1777802650 | 26.11° C | 34% | 1016.8 hPa | 0 mm | - | - | - |
| 1777802350 | 27.22° C | 35% | 1016.9 hPa | 0 mm | - | - | - |
* Rain latest hour (hover to see other rain measurements)
** Current wind speed in m/s (hover to see current wind gust speed)